Skip Page Navigation
NASA JPL Caltech
NASA Logo - Jet Propulsion Laboratory + View the NASA Portal
+ Center for Near-Earth Object Studies
JPL Home Earth Solar System Stars & Galaxies Technology
JPL Solar System Dynamics
BODIES ORBITS EPHEMERIDES TOOLS PHYSICAL DATA DISCOVERY FAQ SITE MAP
JPL Small-Body Database Browser
Search: [ help ]  
193947 (2001 RA46)
Classification: Main-belt Asteroid          SPK-ID: 2193947
Ephemeris | Orbit Diagram | Orbital Elements | Mission Design | Physical Parameters | Discovery Circumstances | Close-Approach Data ]

[ show orbit diagram ]
Orbital Elements at Epoch 2459000.5 (2020-May-31.0) TDB
Reference: JPL 19 (heliocentric ecliptic J2000)
 Element Value Uncertainty (1-sigma)   Units 
e .1723866695882232 4.6089e-08  
a 2.320126678318536 1.0449e-08 au
q 1.920167767220416 1.0376e-07 au
i 3.063959421097135 4.793e-06 deg
node 129.4759656749608 8.8882e-05 deg
peri 262.9792734498426 9.025e-05 deg
M 78.04537361309002 1.3937e-05 deg
tp 2458720.659455644833
(2019-Aug-25.15945564)
4.9808e-05 TDB
period 1290.820855920191
3.53
8.7198e-06
2.387e-08
d
yr
n .278892302017669 1.884e-09 deg/d
Q 2.720085589416655 1.225e-08 au
  Orbit Determination Parameters
   # obs. used (total)      372  
   data-arc span      6760 days (18.51 yr)  
   first obs. used      2001-07-29  
   last obs. used      2020-01-31  
   planetary ephem.      DE431  
   SB-pert. ephem.      SB431-N16  
   condition code      0  
   norm. resid. RMS      .53388  
   source      ORB  
   producer      Otto Matic  
   solution date      2020-Feb-24 22:12:13  

Additional Information
 Earth MOID = .928951 au 
 Jupiter MOID = 2.71328 au 
 T_jup = 3.556 
[ show covariance matrix ]

Ephemeris | Orbit Diagram | Orbital Elements | Mission Design | Physical Parameters | Discovery Circumstances | Close-Approach Data ]

Physical Parameter Table
Parameter Symbol Value Units Sigma Reference Notes
absolute magnitude H 16.8   n/a MPO454348  

193947 (2001 RA46)          Discovered 2001-Sep-15 by Ball, L. at Emerald Lane
Reference: 20081113/Numbers.arcLast Updated: 2008-11-17

[ show close-approach data ]
Ephemeris | Orbit Diagram | Orbital Elements | Mission Design | Physical Parameters | Discovery Circumstances | Close-Approach Data ]
ABOUT SSD CREDITS/AWARDS PRIVACY/COPYRIGHT GLOSSARY LINKS
FirstGov 2020-Aug-11 16:58 UT
(server date/time)  
NASA Home Page
Site Manager:   Ryan S. Park
Webmaster  Alan B. Chamberlin